Date String (YYYY-MM-DD hh:mm:ss) UTC,Instrument flags,Ambient pressure (hPa),Sample flow (lpm),Bypass flow (lpm),Sample temperature (°C),Ambient temperature (°C),ASC tube jacket temperature (°C),LED temperature (°C),Box temperature (°C),Sample RH (%),Span deviation,Mass concentration (μg/m³),Mass concentration (μg/m³),Mass concentration (μg/m³)
DateTimeUTC,F1_M11,P_M11,Q1_M11,Q2_M11,T1_M11,T2_M11,T3_M11,T4_M11,T5_M11,U1_M11,ZSPAN_M11,X0_M11,X2_M11,X1_M11
2021-10-16 03:00:00,,0833.1,5.01,0.00,28.0,27.1,00.0,37.0,29.8,08.2,0000.0,0006.68,0002.97,0002.35
2021-10-16 03:01:00,,0833.0,4.99,0.00,28.0,27.1,00.0,37.0,29.8,08.2,0000.0,0006.81,0003.03,0002.40
2021-10-16 03:02:00,,0833.0,5.00,0.00,28.0,27.1,00.0,37.0,29.8,08.3,0000.0,0007.60,0003.10,0002.43
2021-10-16 03:03:00,,0833.0,5.02,0.00,28.0,27.1,00.0,37.0,29.8,08.3,0000.0,0008.13,0003.14,0002.46
2021-10-16 03:04:00,,0833.0,5.00,0.00,28.0,27.1,00.0,37.0,29.8,08.2,0000.0,0008.80,0003.17,0002.47
2021-10-16 03:05:00,,0833.0,4.98,0.00,28.0,27.1,00.0,37.0,29.8,08.2,0000.0,0008.69,0003.19,0002.48
2021-10-16 03:06:00,,0833.0,5.01,0.00,28.0,27.1,00.0,37.0,29.8,08.2,0000.0,0008.58,0003.22,0002.49
2021-10-16 03:07:00,,0833.0,5.00,0.00,28.0,27.1,00.0,37.0,29.7,08.2,0000.0,0008.58,0003.23,0002.48
2021-10-16 03:08:00,,0833.0,4.99,0.00,28.0,27.1,00.0,37.0,29.7,08.2,0000.0,0008.70,0003.25,0002.49
2021-10-16 03:09:00,,0833.0,5.01,0.00,28.0,27.1,00.0,37.0,29.7,08.2,0000.0,0008.64,0003.28,0002.52
2021-10-16 03:10:00,,0833.0,5.00,0.00,28.0,27.1,00.0,37.1,29.7,08.3,0000.0,0008.29,0003.27,0002.51
2021-10-16 03:11:00,,0833.0,5.00,0.00,28.0,27.0,00.0,37.1,29.7,08.3,0000.0,0008.12,0003.25,0002.50
2021-10-16 03:12:00,,0833.0,5.00,0.00,27.9,27.0,00.0,37.0,29.7,08.3,0000.0,0008.20,0003.25,0002.47
2021-10-16 03:13:00,,0833.0,4.99,0.00,27.9,27.0,00.0,37.0,29.7,08.3,0000.0,0008.07,0003.28,0002.49
2021-10-16 03:14:00,,0833.0,5.01,0.00,27.9,27.0,00.0,37.0,29.6,08.3,0000.0,0007.63,0003.26,0002.48
2021-10-16 03:15:00,,0833.1,5.00,0.00,27.9,27.0,00.0,37.0,29.6,08.3,0000.0,0007.65,0003.25,0002.50
2021-10-16 03:16:00,,0833.0,5.00,0.00,27.9,27.0,00.0,37.0,29.6,08.3,0000.0,0008.27,0003.25,0002.49
2021-10-16 03:17:00,,0833.0,4.99,0.00,27.9,27.0,00.0,37.0,29.6,08.3,0000.0,0008.28,0003.22,0002.46
2021-10-16 03:18:00,,0833.0,5.00,0.00,27.9,27.0,00.0,37.0,29.6,08.3,0000.0,0008.19,0003.18,0002.43
2021-10-16 03:19:00,,0833.0,5.00,0.00,27.8,26.9,00.0,37.0,29.6,08.3,0000.0,0008.01,0003.15,0002.39
2021-10-16 03:20:00,,0833.0,5.00,0.00,27.8,26.9,00.0,37.0,29.5,08.3,0000.0,0007.74,0003.09,0002.33
2021-10-16 03:21:00,,0833.0,5.00,0.00,27.8,26.9,00.0,37.0,29.5,08.2,0000.0,0007.74,0003.05,0002.29
2021-10-16 03:22:00,,0833.1,4.99,0.00,27.8,26.9,00.0,37.0,29.5,08.2,0000.0,0008.16,0003.04,0002.26
2021-10-16 03:23:00,,0833.1,5.00,0.00,27.8,26.9,00.0,37.0,29.5,08.1,0000.0,0008.45,0003.00,0002.19
2021-10-16 03:24:00,,0833.1,5.01,0.00,27.8,26.9,00.0,37.0,29.5,08.3,0000.0,0007.96,0002.91,0002.13
2021-10-16 03:25:00,,0832.9,5.01,0.00,27.8,26.8,00.0,37.0,29.4,08.3,0000.0,0007.90,0002.84,0002.07
2021-10-16 03:26:00,,0832.9,4.99,0.00,27.8,26.8,00.0,36.9,29.4,08.2,0000.0,0007.18,0002.73,0001.99
2021-10-16 03:27:00,,0832.8,5.00,0.00,27.7,26.8,00.0,36.9,29.4,08.1,0000.0,0005.89,0002.66,0001.93
2021-10-16 03:28:00,,0832.9,5.00,0.00,27.7,26.8,00.0,36.9,29.4,08.1,0000.0,0005.75,0002.59,0001.88
2021-10-16 03:29:00,,0832.8,4.99,0.00,27.7,26.7,00.0,36.9,29.4,08.1,0000.0,0005.84,0002.58,0001.83
2021-10-16 03:30:00,,0832.9,5.01,0.00,27.7,26.7,00.0,36.9,29.4,08.1,0000.0,0005.79,0002.55,0001.78
2021-10-16 03:31:00,,0832.8,4.99,0.00,27.7,26.7,00.0,36.9,29.4,08.2,0000.0,0005.97,0002.54,0001.75
2021-10-16 03:32:00,,0832.9,4.99,0.00,27.7,26.7,00.0,36.9,29.4,08.2,0000.0,0006.16,0002.53,0001.72
2021-10-16 03:33:00,,0832.8,5.01,0.00,27.7,26.7,00.0,36.9,29.3,08.1,0000.0,0005.66,0002.51,0001.70
2021-10-16 03:34:00,,0832.9,5.00,0.00,27.7,26.7,00.0,36.9,29.3,08.3,0000.0,0004.88,0002.48,0001.69
2021-10-16 03:35:00,,0832.9,4.99,0.00,27.6,26.6,00.0,36.8,29.3,08.5,0000.0,0004.64,0002.41,0001.68
2021-10-16 03:36:00,,0832.8,4.99,0.00,27.6,26.7,00.0,36.8,29.3,08.4,0000.0,0004.51,0002.37,0001.66
2021-10-16 03:37:00,,0832.8,5.01,0.00,27.6,26.7,00.0,36.8,29.3,08.4,0000.0,0004.63,0002.41,0001.68
2021-10-16 03:38:00,,0832.9,5.00,0.00,27.6,26.6,00.0,36.8,29.3,08.4,0000.0,0004.55,0002.40,0001.70
2021-10-16 03:39:00,,0832.8,4.99,0.00,27.6,26.6,00.0,36.8,29.3,08.4,0000.0,0004.55,0002.41,0001.72
2021-10-16 03:40:00,,0832.9,5.00,0.00,27.6,26.6,00.0,36.8,29.3,08.4,0000.0,0004.67,0002.48,0001.74
2021-10-16 03:41:00,,0832.8,5.00,0.00,27.6,26.6,00.0,36.8,29.3,08.4,0000.0,0004.92,0002.54,0001.76
2021-10-16 03:42:00,,0832.9,5.00,0.00,27.6,26.6,00.0,36.8,29.3,08.4,0000.0,0004.84,0002.56,0001.77
2021-10-16 03:43:00,,0832.9,5.00,0.00,27.6,26.6,00.0,36.8,29.2,08.4,0000.0,0004.42,0002.50,0001.78
2021-10-16 03:44:00,,0832.9,5.00,0.00,27.6,26.6,00.0,36.8,29.3,08.4,0000.0,0004.98,0002.51,0001.78
2021-10-16 03:45:00,,0832.9,4.98,0.00,27.5,26.6,00.0,36.7,29.3,08.4,0000.0,0005.04,0002.51,0001.78
2021-10-16 03:46:00,,0832.9,5.01,0.00,27.5,26.6,00.0,36.7,29.2,08.5,0000.0,0005.23,0002.57,0001.78
2021-10-16 03:47:00,,0832.9,5.00,0.00,27.5,26.6,00.0,36.7,29.2,08.4,0000.0,0005.27,0002.59,0001.78
2021-10-16 03:48:00,,0832.9,4.99,0.00,27.5,26.6,00.0,36.7,29.2,08.3,0000.0,0005.30,0002.58,0001.75
2021-10-16 03:49:00,,0832.9,4.99,0.00,27.5,26.5,00.0,36.7,29.2,08.3,0000.0,0005.38,0002.56,0001.71
2021-10-16 03:50:00,,0832.8,5.00,0.00,27.5,26.5,00.0,36.7,29.2,08.4,0000.0,0005.15,0002.47,0001.67
2021-10-16 03:51:00,,0832.8,5.00,0.00,27.5,26.5,00.0,36.7,29.2,08.4,0000.0,0004.90,0002.38,0001.64
2021-10-16 03:52:00,,0832.9,5.00,0.00,27.5,26.5,00.0,36.7,29.2,08.4,0000.0,0004.58,0002.31,0001.62
2021-10-16 03:53:00,,0832.9,4.99,0.00,27.5,26.5,00.0,36.7,29.2,08.3,0000.0,0004.51,0002.27,0001.60
2021-10-16 03:54:00,,0832.8,5.00,0.00,27.4,26.5,00.0,36.7,29.1,08.3,0000.0,0004.59,0002.26,0001.58
2021-10-16 03:55:00,,0832.8,4.99,0.00,27.4,26.5,00.0,36.6,29.1,08.3,0000.0,0003.92,0002.24,0001.56
2021-10-16 03:56:00,,0832.8,5.01,0.00,27.4,26.5,00.0,36.6,29.1,08.3,0000.0,0003.76,0002.22,0001.55
2021-10-16 03:57:00,,0832.9,5.01,0.00,27.4,26.5,00.0,36.6,29.1,08.3,0000.0,0003.70,0002.14,0001.52
2021-10-16 03:58:00,,0832.9,4.99,0.00,27.4,26.5,00.0,36.6,29.2,08.5,0000.0,0003.83,0002.14,0001.50
2021-10-16 03:59:00,,0832.9,5.01,0.00,27.4,26.5,00.0,36.6,29.2,08.7,0000.0,0003.73,0002.11,0001.51
